小惑星A/2019 O2

A/2019 O2

English version
Home page
Updated on September 29, 2022

---------------------------------------------------------------------

・ プロフィール

発見日 2019年7月24日
発見光度 20.5等
発見者 Pan-STARRS 1 telescope (Haleakala)

・ 写真集

・ 軌道要素

Epoch 2022 Jan. 21.0 TT = JDT 2459600.5
T 2023 Apr. 7.79977 TT                                  Rudenko
q   9.6826601            (2000.0)            P               Q
z  +0.0174071      Peri.  129.66366     -0.39169145     -0.53960068
 +/-0.0000005      Node    48.28731     -0.76985924     -0.25137079
e   0.8314529      Incl.   93.29380     +0.50387951     -0.80351966
H    9.5
From 218 observations 2019 July 24-2022 Feb. 4, mean residual 0".3.

・ 光度変化

        H = 9.2  G = 0.15

---------------------------------------------------------------------

軌道要素はM.P.E.C. 2022-C234に掲載されたものです。
光度グラフはComet for Windowsで作成したものです。

---------------------------------------------------------------------

Copyright(C) Seiichi Yoshida (comet@aerith.net). All rights reserved.